Regional Weather Roundup
Issued by NWS

Home | Current Version | Previous Version | Graphics & Text | Print | Product List | Glossary On
Versions: 1 2 3 4 5 6 7 8 9 10 11 12 13 14 15 16 17 18 19 20 21 22 23 24 25 26 27 28
000
ASUS45 KCYS 210210
RWRWY

WYOMING REGIONAL WEATHER ROUNDUP
NATIONAL WEATHER SERVICE CHEYENNE WY
700 PM MST SAT JAN 20 2018

NOTE:  "FAIR" INDICATES FEW OR NO CLOUDS BELOW 12,000 FEET
WITH NO SIGNIFICANT WEATHER AND/OR OBSTRUCTIONS TO VISIBILITY.

WYZ001-210300-
YELLOWSTONE NATIONAL PARK

CITY           SKY/WX    TMP DP  RH WIND       PRES   REMARKS
LK YELLOWSTONE   N/A      8   5  87 NW3       29.89S
W YELLOWSTONE  NOT AVBL

$$
WYZ002>013-054>058-071-098>099-210300-
NORTHERN WYOMING

CITY           SKY/WX    TMP DP  RH WIND       PRES   REMARKS
JACKSON        CLOUDY    22  15  75 N13       29.87R WCI  10
CODY           MOCLDY    26  22  84 N6        29.93S WCI  19
GREYBULL       FAIR      29  25  85 W3        29.94R
WORLAND        CLOUDY    28  27  96 S9        29.92S WCI  19
SHERIDAN       CLOUDY    27  20  75 CALM      29.95F
BUFFALO        CLOUDY    28  15  58 CALM      29.93S
GILLETTE       CLOUDY    27  24  89 SW5       29.94R WCI  22
HULETT         CLOUDY    30  27  86 MISG      29.94S
NEWCASTLE      LGT SNOW  30  28  93 W6        29.93S WCI  24

$$
WYZ014>020-022>026-101>103-210300-
CENTRAL WYOMING

CITY           SKY/WX    TMP DP  RH WIND       PRES   REMARKS
BIG PINEY      CLOUDY    23  16  74 NW9       29.80R WCI  13
PINEDALE       CLOUDY    23  18  80 W13G20    29.79S WCI  11
DUBOIS         LGT SNOW  21  19  93 SE7       29.81R WCI  13
LANDER         LGT SNOW  24  22  91 CALM      29.87S VSB 1
RIVERTON       LGT SNOW  24  22  91 E3        29.88S FOG
CASPER         LGT SNOW  23  22  96 NE13      29.88S VSB 1   WCI  11
DOUGLAS        LGT SNOW  26  25  96 N5        29.89S VSB 3/4 WCI  20

$$
WYZ021-027>030-104>119-210300-
SOUTHERN WYOMING

CITY           SKY/WX    TMP DP  RH WIND       PRES   REMARKS
EVANSTON       CLOUDY    20  18  92 N16       29.81S FOG     WCI   6
FORT BRIDGER   LGT SNOW  23  23 100 W9        29.82F WCI  13
ROCK SPRINGS   LGT SNOW  22  18  85 N12       29.78F FOG     WCI  10
DIXON          LGT SNOW  29  28  96 W8        29.72F VSB 1   WCI  21
RAWLINS        LGT SNOW  23  20  88 N10       29.74S VSB 1   WCI  12
SARATOGA       LGT SNOW  27  27 100 NW8       29.69F WCI  18
LARAMIE        FAIR      25  22  88 NE10      29.71F WCI  15
CHEYENNE       SNOW      27  27 100 NE10      29.81S VSB 1/4 WCI  17
TORRINGTON     FLURRIES  31  29  92 NE12      29.88R WCI  22

$$




USA.gov is the U.S. government's official web portal to all federal, state and local government web resources and services.